Weather History for Marianna, FL

Change the Weather History Date:

Friday, August 30, 2013

  Actual Average Record
Temperature  
Mean Temperature 85 °F 81 °F  
Max Temperature 95 °F 91 °F 104 °F (2011)
Min Temperature 74 °F 71 °F 70 °F (2001)
Degree Days  
Heating Degree Days 0    
Month to date heating degree days 0  
Since 1 June heating degree days 0  
Since 1 July heating degree days 0  
Cooling Degree Days 20    
Month to date cooling degree days 496  
Year to date cooling degree days 1846  
Since 1 June cooling degree days 1410  
Growing Degree Days 33 (Base 50)    
Moisture  
Dew Point 72 °F    
Average Humidity 75    
Maximum Humidity 100    
Minimum Humidity 49    
Precipitation  
Precipitation 0.24 in 0.13 in 0.52 in (2012)
Month to date precipitation 14.23 5.28  
Year to date precipitation 50.68 38.18  
Sea Level Pressure  
Sea Level Pressure 29.93 in    
Wind  
Wind Speed 4 mph (NW)    
Max Wind Speed 23 mph    
Max Gust Speed 31 mph    
Visibility 9 miles    
Events Rain , Thunderstorm    
T = Trace of Precipitation, MM = Missing Value Source: NWS Daily Summary

Daily Weather History Graph

Daily Weather History Graph

Search for Another Location

Airport:

Trip Planner

Search our weather history database for the weather conditions in past years. The results will help you decide how hot, cold, wet, or windy it might be!

Date:

Astronomy

Aug. 30, 2013 Rise Set
Actual Time 6:16 AM CDT 7:05 PM CDT
Civil Twilight 5:51 AM CDT 7:30 PM CDT
Nautical Twilight 5:22 AM CDT 7:59 PM CDT
Astronomical Twilight 4:52 AM CDT 8:29 PM CDT
Moon 1:06 AM CDT (8/30) 3:09 PM CDT (8/30)
Length of Visible Light 13h 39m
Length of Day
12h 49m
Waning Crescent, 29% of the Moon is Illuminated
Aug 30
Waning Crescent
Sep 5
New
Sep 12
First Quarter
Sep 19
Full
Sep 26
Last Quarter

Hourly Weather History & Observations

Time (CDT) Temp. Heat Index Dew Point Humidity Pressure Visibility Wind Dir Wind Speed Gust Speed Precip Events Conditions
12:53 AM 75.9 °F - 72.0 °F 87% 29.96 in 8.0 mi Calm Calm - N/A   Clear
1:53 AM 75.0 °F - 72.0 °F 90% 29.96 in 8.0 mi SW 3.5 mph - N/A   Clear
2:53 AM 75.9 °F - 72.0 °F 87% 29.95 in 8.0 mi West 3.5 mph - N/A   Overcast
3:53 AM 75.0 °F - 72.0 °F 90% 29.95 in 8.0 mi Calm Calm - N/A   Clear
4:53 AM 75.0 °F - 72.0 °F 90% 29.95 in 9.0 mi Calm Calm - N/A   Scattered Clouds
5:53 AM 75.0 °F - 72.0 °F 90% 29.95 in 7.0 mi West 5.8 mph - N/A   Scattered Clouds
6:53 AM 75.0 °F - 72.0 °F 90% 29.97 in 7.0 mi Calm Calm - N/A   Clear
7:53 AM 78.1 °F - 72.0 °F 81% 29.98 in 7.0 mi WNW 4.6 mph - N/A   Clear
8:53 AM 80.1 °F 84.2 °F 73.0 °F 79% 29.99 in 8.0 mi WNW 5.8 mph - N/A   Clear
9:53 AM 82.0 °F 87.4 °F 73.0 °F 74% 29.99 in 9.0 mi NW 5.8 mph - N/A   Clear
10:53 AM 84.0 °F 90.2 °F 73.0 °F 69% 29.99 in 9.0 mi Calm Calm - N/A   Partly Cloudy
11:53 AM 90.0 °F 96.9 °F 72.0 °F 55% 29.97 in 10.0 mi WNW 5.8 mph - N/A   Clear
12:53 PM 91.0 °F 98.2 °F 72.0 °F 53% 29.96 in 10.0 mi NNW 5.8 mph - N/A   Clear
1:53 PM 93.0 °F 100.1 °F 71.1 °F 49% 29.92 in 10.0 mi NW 4.6 mph - N/A   Clear
2:53 PM 93.9 °F 102.1 °F 72.0 °F 49% 29.91 in 10.0 mi NNW 10.4 mph - N/A   Partly Cloudy
3:53 PM 93.9 °F 102.1 °F 72.0 °F 49% 29.89 in 10.0 mi NW 9.2 mph - 0.00 in   Partly Cloudy
4:53 PM 93.0 °F 101.9 °F 73.0 °F 52% 29.88 in 10.0 mi WNW 8.1 mph - N/A   Clear
5:04 PM 91.4 °F 100.1 °F 73.4 °F 55% 29.88 in 10.0 mi West 6.9 mph - N/A Thunderstorm Clear
5:19 PM 89.6 °F 98.2 °F 73.4 °F 59% 29.88 in 10.0 mi West 5.8 mph - N/A   Clear
5:53 PM 87.1 °F 96.3 °F 75.0 °F 67% 29.87 in 10.0 mi Calm Calm - N/A   Clear
6:40 PM 86.0 °F 95.1 °F 75.2 °F 70% 29.88 in 10.0 mi Calm Calm - N/A Thunderstorm Scattered Clouds
6:53 PM 81.0 °F 85.2 °F 72.0 °F 74% 29.91 in 10.0 mi NNE 17.3 mph 27.6 mph N/A Thunderstorm Thunderstorm
7:04 PM 78.8 °F - 69.8 °F 74% 29.93 in 10.0 mi NNE 18.4 mph 31.1 mph N/A Thunderstorm Thunderstorm
7:53 PM 75.0 °F - 71.1 °F 87% 29.90 in 10.0 mi Calm Calm - 0.16 in Rain , Thunderstorm Light Rain
7:59 PM 75.2 °F - 71.6 °F 89% 29.92 in 10.0 mi NE 10.4 mph 16.1 mph N/A Thunderstorm Scattered Clouds
8:20 PM 75.2 °F - 71.6 °F 89% 29.92 in 9.0 mi East 3.5 mph - N/A   Mostly Cloudy
8:53 PM 75.0 °F - 71.1 °F 87% 29.92 in 10.0 mi Calm Calm - 0.02 in Rain Light Rain
9:02 PM 73.4 °F - 71.6 °F 94% 29.94 in 10.0 mi SE 3.5 mph - 0.00 in Rain , Thunderstorm Light Rain
9:53 PM 73.9 °F - 71.1 °F 91% 29.94 in 10.0 mi Calm Calm - 0.05 in Rain , Thunderstorm Light Rain
10:23 PM 73.4 °F - 71.6 °F 94% 29.93 in 10.0 mi WSW 4.6 mph - 0.01 in   Mostly Cloudy
10:53 PM 73.9 °F - 72.0 °F 93% 29.92 in 10.0 mi Calm Calm - 0.01 in   Scattered Clouds
11:15 PM 73.4 °F - 71.6 °F 94% 29.94 in 10.0 mi ESE 3.5 mph - N/A   Mostly Cloudy
11:53 PM 73.9 °F - 73.0 °F 97% 29.91 in 10.0 mi Calm Calm - N/A   Clear